GFSNIL_850_temp_114.txt.gz
Temp
5 5 6 7 6 7 10 12 13 12 13 13 13 13 14 13 13 13 12 12 13 14
5 5 5 5 5 6 7 10 12 12 12 14 13 13 13 13 13 13 13 12 13 14
2 3 3 4 5 7 7 9 12 12 11 13 13 13 13 13 13 13 12 12 13 13
1 2 3 3 5 7 7 8 11 13 12 12 12 13 13 13 14 13 13 12 13 13
0 2 3 4 7 8 9 10 10 12 11 12 13 13 12 13 13 13 13 12 13 13
0 2 3 4 6 8 9 9 10 11 11 12 13 12 12 12 12 13 13 12 13 14
-0 -0 1 4 4 6 7 9 11 11 11 12 12 13 11 11 12 12 12 12 13 12
-1 -1 1 2 3 6 6 7 7 10 10 11 11 11 11 11 11 11 11 11 11 11
-2 -1 -0 0 2 3 5 7 8 10 10 10 11 11 11 11 11 11 11 11 11 10
-4 -3 -2 -1 0 1 1 3 3 6 7 8 9 10 11 11 11 11 10 10 10 10
-5 -5 -4 -2 -2 -1 -0 1 0 1 3 5 5 7 10 9 10 10 9 9 8 9
-5 -4 -5 -5 -4 -3 -2 -2 -1 -1 0 1 -1 1 2 6 2 7 6 6 6 6
-4 -4 -5 -4 -5 -4 -4 -3 -3 -3 -2 -2 -2 -1 0 2 0 -0 1 0 0 0
-4 -4 -4 -4 -4 -4 -4 -3 -3 -3 -4 -4 -4 -3 -2 -1 -0 -0 -0 -1 -1 -2

GFSNIL_850_temp_117.txt.gz
Temp
5 5 5 5 6 7 8 10 11 12 13 13 12 12 13 13 13 14 14 13 12 12
4 4 4 5 5 6 6 8 9 10 10 12 12 12 12 13 13 13 13 13 13 13
2 2 3 3 4 3 3 4 7 9 8 9 11 11 12 13 14 13 13 12 12 14
1 2 1 2 2 3 3 4 6 8 7 7 8 10 11 13 13 14 13 12 13 12
-1 -0 0 1 1 2 4 6 7 7 7 8 8 10 11 11 13 12 12 12 12 13
-2 -1 -1 0 0 2 3 5 7 8 8 9 9 11 10 12 12 13 13 12 13 13
-3 -3 -2 -1 1 1 2 3 5 6 8 8 9 9 10 11 12 12 12 12 12 13
-5 -4 -3 -2 -1 -1 0 0 2 5 6 8 9 10 11 12 12 12 12 12 12 12
-6 -6 -5 -4 -2 -1 -1 -1 1 2 -0 4 6 9 10 11 11 11 11 11 12 11
-6 -6 -5 -4 -3 -3 -4 -3 -1 1 -1 1 3 9 10 9 10 10 10 11 11 11
-5 -5 -4 -4 -4 -4 -4 -4 -3 -1 -0 -1 0 1 5 7 9 9 7 8 8 9
-4 -4 -4 -4 -4 -4 -4 -3 -3 -3 -2 -2 -1 0 1 1 2 2 3 2 2 1
-4 -4 -4 -4 -4 -4 -4 -4 -3 -3 -3 -2 -2 -2 -0 0 1 0 -0 1 -0 -1
-4 -4 -3 -3 -3 -3 -3 -3 -3 -4 -4 -4 -3 -3 -3 -2 -1 -1 -1 -1 -1 -2

GFSNIL_850_temp_123.txt.gz
Temp
4 4 5 5 5 5 5 6 6 7 9 10 10 10 11 11 11 11 10 11 12 13
1 2 2 3 3 2 3 3 4 5 5 6 8 9 9 10 10 11 11 10 11 12
-2 -1 -0 -0 0 -0 0 0 1 3 5 5 4 5 6 7 8 9 9 10 10 11
-3 -3 -2 -2 -3 -2 -1 -0 1 2 4 5 5 5 5 5 5 7 8 9 9 10
-4 -4 -5 -4 -4 -2 -2 -1 0 1 2 3 4 5 5 5 6 7 7 8 8 9
-5 -5 -6 -5 -5 -4 -2 -2 -1 -1 0 1 2 3 4 4 6 7 7 8 8 9
-5 -5 -5 -5 -5 -5 -4 -4 -3 -3 -2 -1 1 1 2 4 5 6 6 7 8 8
-4 -5 -5 -5 -5 -5 -5 -5 -5 -4 -4 -4 -3 -2 2 5 6 6 7 7 7 7
-4 -4 -4 -5 -5 -5 -5 -5 -5 -5 -6 -5 -5 -3 -0 3 4 6 7 7 7 8
-3 -4 -4 -4 -4 -4 -4 -4 -5 -5 -6 -6 -5 -4 -2 0 2 4 6 6 7 7
-3 -3 -3 -3 -3 -4 -4 -4 -5 -5 -5 -5 -5 -4 -2 -1 -1 -0 2 2 3 4
-3 -3 -3 -3 -4 -4 -4 -5 -6 -6 -5 -5 -5 -3 -3 -3 -2 -1 -0 0 1 1
-3 -3 -3 -4 -5 -4 -3 -4 -6 -6 -6 -6 -5 -5 -4 -3 -3 -2 -2 -1 -2 -2
-4 -4 -4 -5 -4 -4 -4 -4 -5 -5 -6 -6 -5 -5 -5 -4 -3 -3 -2 -3 -3 -3

GFSNIL_850_temp_126.txt.gz
Temp
3 3 2 0 0 1 3 5 5 5 5 6 6 7 7 8 9 10 10 11 10 10
1 0 -3 -2 -3 -3 -2 -1 0 1 2 4 5 5 4 5 6 8 9 9 10 9
-4 -5 -6 -5 -5 -4 -3 -3 -2 -2 -1 1 4 5 5 4 4 4 7 8 8 9
-3 -3 -6 -6 -5 -5 -4 -3 -3 -2 -2 -2 -0 3 4 4 3 3 4 5 6 8
-4 -6 -6 -7 -5 -4 -4 -4 -4 -4 -3 -3 -2 -1 -0 2 3 3 4 6 6 7
-5 -5 -5 -5 -5 -5 -5 -5 -5 -5 -5 -4 -4 -3 -2 -1 1 3 4 5 5 6
-5 -5 -5 -5 -5 -6 -5 -5 -5 -5 -6 -5 -5 -4 -3 -1 -0 2 3 4 5 6
-4 -4 -4 -5 -5 -5 -5 -6 -6 -6 -6 -6 -6 -6 -5 -2 -1 1 3 4 4 5
-3 -4 -4 -4 -4 -4 -5 -5 -5 -6 -7 -7 -6 -6 -5 -4 -2 -0 2 1 3 5
-4 -4 -4 -4 -4 -4 -5 -5 -5 -5 -5 -6 -6 -5 -5 -5 -4 -3 -2 -0 1 3
-4 -4 -3 -3 -4 -3 -4 -4 -4 -4 -5 -5 -5 -5 -5 -5 -4 -5 -5 -4 -2 0
-4 -4 -3 -3 -4 -4 -4 -4 -4 -4 -4 -5 -5 -5 -4 -4 -4 -4 -5 -5 -3 -3
-4 -4 -4 -4 -4 -5 -5 -6 -4 -5 -5 -5 -6 -5 -5 -4 -3 -3 -4 -4 -4 -4
-4 -4 -5 -4 -4 -4 -4 -5 -5 -6 -6 -6 -6 -6 -6 -5 -4 -4 -5 -5 -4 -5

GFSNIL_850_temp_129.txt.gz
Temp
1 0 0 -0 0 0 1 1 3 4 4 4 4 3 3 3 5 7 7 8 9 10
-1 -0 -1 -2 -2 -1 -1 -1 -1 -1 -1 -0 1 1 1 1 1 2 5 6 8 9
-2 -3 -4 -5 -5 -4 -4 -3 -3 -2 -1 -1 -1 -1 -1 -0 0 1 2 2 4 6
-3 -4 -4 -4 -4 -4 -4 -4 -4 -3 -3 -2 -1 -1 -1 -1 -0 -1 0 2 3 4
-3 -3 -4 -5 -5 -5 -5 -5 -5 -5 -6 -5 -5 -4 -3 -3 -1 -1 -0 1 2 2
-3 -4 -5 -5 -5 -5 -6 -6 -6 -6 -7 -6 -6 -6 -4 -3 -2 -1 -0 -0 0 2
-4 -5 -5 -5 -5 -5 -5 -6 -7 -7 -7 -8 -7 -7 -6 -5 -4 -3 -2 1 1 1
-5 -5 -5 -5 -4 -4 -5 -5 -6 -6 -7 -8 -8 -7 -6 -6 -6 -5 -3 -1 -2 -1
-4 -4 -4 -4 -4 -4 -4 -5 -5 -5 -6 -7 -7 -6 -6 -6 -7 -6 -5 -4 -2 -1
-4 -4 -4 -4 -4 -3 -4 -5 -5 -5 -6 -5 -6 -6 -5 -6 -7 -7 -7 -6 -4 -2
-4 -4 -4 -4 -4 -4 -4 -5 -5 -5 -6 -5 -5 -5 -5 -5 -5 -7 -6 -6 -5 -4
-5 -5 -5 -5 -5 -5 -5 -5 -6 -6 -5 -5 -5 -6 -5 -4 -5 -5 -6 -6 -5 -4
-6 -6 -6 -7 -6 -6 -6 -6 -6 -6 -6 -6 -6 -6 -6 -5 -4 -4 -5 -5 -5 -6
-6 -6 -6 -7 -7 -6 -5 -5 -5 -5 -6 -7 -7 -7 -7 -7 -6 -6 -6 -6 -6 -7

GFSNIL_850_temp_132.txt.gz
Temp
-1 -3 -4 -4 -5 -5 -5 -4 -3 -3 -3 -2 -2 -2 -1 -1 0 1 2 3 6 5
-1 -3 -3 -4 -5 -5 -5 -5 -5 -4 -4 -4 -3 -2 -2 -2 -1 -0 0 1 1 3
-2 -3 -4 -5 -4 -4 -4 -5 -4 -4 -4 -5 -5 -5 -4 -2 -2 -1 -0 1 1 1
-1 -3 -3 -3 -4 -4 -5 -6 -6 -7 -7 -6 -6 -6 -5 -4 -2 -2 -2 -2 -1 1
-2 -2 -4 -4 -4 -5 -6 -7 -7 -7 -7 -7 -7 -7 -7 -6 -5 -5 -4 -2 -1 0
-3 -3 -4 -4 -4 -4 -6 -8 -8 -8 -8 -8 -8 -8 -7 -7 -6 -6 -5 -4 -3 -1
-3 -3 -4 -4 -5 -5 -5 -6 -7 -8 -9 -8 -8 -8 -8 -8 -7 -6 -6 -5 -3 -1
-3 -3 -4 -4 -4 -5 -6 -6 -6 -6 -7 -8 -7 -7 -7 -8 -9 -8 -7 -6 -4 -3
-3 -3 -4 -4 -4 -5 -7 -6 -6 -5 -6 -6 -6 -6 -6 -6 -8 -9 -8 -7 -6 -5
-3 -4 -4 -4 -4 -5 -6 -6 -5 -4 -4 -5 -6 -6 -5 -5 -6 -7 -8 -9 -8 -6
-4 -4 -4 -5 -5 -5 -6 -7 -6 -5 -5 -5 -6 -5 -5 -5 -5 -5 -6 -7 -8 -7
-5 -4 -5 -5 -5 -6 -8 -8 -7 -7 -6 -6 -6 -6 -5 -5 -5 -5 -6 -5 -6 -6
-5 -5 -5 -6 -7 -8 -9 -9 -9 -8 -7 -7 -7 -6 -6 -6 -6 -5 -6 -6 -5 -6
-6 -6 -6 -7 -7 -8 -9 -10 -10 -9 -8 -8 -8 -7 -7 -7 -6 -7 -8 -8 -7 -7

GFSNIL_850_temp_135.txt.gz
Temp
-0 -2 -3 -4 -4 -4 -5 -5 -5 -5 -5 -4 -4 -4 -3 -3 -2 -2 -1 -1 -0 0
-2 -2 -4 -5 -5 -6 -6 -6 -6 -6 -6 -5 -5 -5 -5 -4 -3 -2 -2 -1 -1 -0
-2 -2 -4 -5 -5 -5 -6 -6 -6 -6 -6 -6 -6 -6 -6 -5 -5 -4 -4 -3 -2 -1
-1 -2 -2 -3 -4 -4 -6 -7 -7 -7 -7 -6 -6 -6 -7 -6 -6 -6 -5 -4 -4 -3
-2 -2 -3 -3 -4 -4 -5 -6 -7 -7 -7 -7 -7 -8 -7 -7 -7 -7 -7 -6 -5 -4
-3 -2 -2 -4 -4 -5 -4 -5 -6 -7 -7 -8 -7 -8 -8 -8 -8 -8 -8 -7 -6 -5
-1 -2 -2 -3 -5 -6 -6 -6 -6 -8 -8 -8 -7 -6 -7 -8 -9 -9 -9 -8 -7 -6
-2 -2 -3 -3 -6 -7 -8 -8 -7 -9 -9 -9 -7 -7 -6 -8 -9 -10 -10 -9 -8 -7
-3 -3 -3 -3 -4 -8 -8 -9 -6 -8 -10 -9 -8 -5 -5 -6 -7 -7 -8 -8 -8 -8
-3 -4 -4 -4 -4 -5 -6 -6 -7 -7 -7 -7 -6 -6 -5 -6 -6 -7 -8 -8 -7 -7
-4 -4 -5 -5 -4 -5 -6 -7 -7 -8 -8 -7 -7 -6 -5 -5 -6 -6 -6 -7 -7 -7
-5 -5 -5 -5 -5 -6 -7 -9 -10 -10 -8 -8 -7 -6 -6 -5 -6 -6 -6 -7 -7 -7
-5 -6 -6 -6 -6 -7 -9 -11 -11 -11 -11 -10 -9 -8 -7 -6 -7 -7 -7 -7 -7 -7
-6 -6 -8 -8 -8 -9 -11 -11 -11 -11 -11 -10 -10 -9 -9 -8 -8 -9 -9 -8 -8 -9

GFSNIL_850_temp_141.txt.gz
Temp
5 4 3 3 2 2 2 1 -0 -1 -2 -4 -4 -5 -6 -6 -6 -6 -5 -5 -5 -4
3 3 2 2 1 1 1 0 -1 -1 -1 -2 -2 -4 -7 -6 -6 -7 -7 -7 -6 -6
2 2 2 1 0 0 0 -0 -1 -1 -1 -1 -2 -3 -4 -6 -6 -7 -7 -7 -8 -8
1 1 1 0 -0 -1 -1 -1 -1 -2 -2 -2 -2 -2 -2 -4 -5 -6 -7 -8 -8 -8
-0 0 -0 -1 -2 -2 -2 -3 -2 -2 -2 -2 -3 -3 -3 -5 -5 -6 -7 -8 -9 -9
-1 -1 -2 -3 -4 -3 -3 -3 -3 -3 -2 -2 -3 -3 -4 -5 -6 -7 -7 -8 -8 -9
-2 -2 -2 -3 -4 -4 -4 -4 -3 -3 -3 -3 -3 -4 -4 -5 -6 -7 -7 -8 -8 -9
-3 -3 -3 -3 -4 -4 -4 -4 -4 -4 -4 -4 -4 -4 -5 -6 -6 -7 -6 -7 -7 -8
-3 -3 -3 -4 -4 -5 -5 -5 -5 -5 -5 -5 -5 -5 -6 -6 -7 -7 -6 -6 -8 -7
-3 -3 -4 -4 -5 -5 -5 -5 -5 -5 -6 -5 -7 -6 -7 -7 -8 -7 -8 -8 -9 -9
-4 -4 -5 -6 -5 -6 -7 -6 -6 -6 -6 -7 -8 -7 -8 -9 -8 -9 -9 -9 -11 -11
-5 -5 -6 -6 -7 -8 -9 -9 -8 -7 -7 -7 -8 -12 -9 -9 -9 -9 -10 -10 -11 -13
-7 -7 -7 -7 -8 -9 -10 -10 -9 -8 -8 -8 -8 -12 -13 -11 -10 -11 -11 -12 -12 -14
-8 -8 -8 -9 -10 -10 -10 -10 -10 -8 -9 -8 -9 -10 -13 -14 -12 -13 -13 -13 -13 -14